COSMOS 1607

Satellite information

Favourite Embed

Satellite Type and Status

PAYLOADIN ORBIT

Key statistics

Satellite COSMOS 1607 at a glance.

Uptime

14966

Days in orbit

Revolutions

≈ 13.8

Per day

Orbit

LEO

Low Earth Orbit

Inclination

65.0

Latest

Satellite identification and parameters

Extended collection of information and parameters for COSMOS 1607.

Object identification

Identified? True

Debris? False

Object name: COSMOS 1607

International designator: 1984-112A

Object number (NORAD): 15378

Object ID (CCSDS): 15378

Country: COMMONWEALTH OF INDEPENDENT STATES (CIS)

Current information (Y/N): Y

RCS size: LARGE

Orbital parameters

Period: 104.069 minutes

Inclination: 64.9925 deg

SMA: 7328.945 km

Apoapsis: 971.524 km

Periapsis: 930.096 km

RAAN: 321.0458 deg

Eccentricy: 0.00282636

Argument of periapsis: 59.002 deg

Mean anomaly: 301.381 deg

Mean motion: 13.83695649 rev/day

Mean motion (dot): -0.00000035 rev/day2

B* drag term: 0.000048683359 1/REarth

Two-line elements (TLE)

Creation date: Oct. 21, 2025, 3:26 a.m.

Reference frame: TEME

Reference center: EARTH

Epoch: Oct. 20, 2025, 7:21 p.m. UTC

TLE line 0: 0 COSMOS 1607

TLE line 1: 1 15378U 84112A 25293.80667151 -.00000035 00000-0 48683-4 0 9997

TLE line 2: 2 15378 64.9925 321.0458 0028264 59.0020 301.3810 13.83695649 71864

Live tracking on map

Real-time ground track for satellite COSMOS 1607.

In-orbit conjunctions

A list of the most updated potential collisions computed for object COSMOS 1607.

Target Orbit TCA Probability of collision Miss distance Type
FENGYUN 1C DEB SSO 2025-10-03 22:44:48 0.0001237122 854.0 (m) DEBRIS
CZ-6A DEB SSO 2025-10-03 21:01:40 0.003008131 57.0 (m) DEBRIS
THOR ABLESTAR DEB LEO 2024-12-26 18:36:17 0.009436874 73.0 (m) DEBRIS
FENGYUN 1C DEB SSO 2024-11-04 10:24:58 0.0002980127 191.0 (m) DEBRIS
FENGYUN 1C DEB SSO 2024-10-20 02:52:54 0.0002277763 641.0 (m) DEBRIS

Associated space launch

Active radar satellite for ocean surveillance powered by a nuclear reactor.

COSMOS 1607 was lifted into orbit during the mission ‘Tsiklon-2 | US-A 25’, on board a Tsiklon-2 space rocket.

The launch took place on Oct. 31, 1984, 12:29 p.m. from 90.

For more information about the launch, click the button.

Launch to space Tsiklon-2 | US-A 25
Tsiklon-2 | US-A 25

Agency: N/A

Status: Launch Successful

Launch date: Oct. 31, 1984, 12:29 p.m. UTC

Rocket: Tsiklon-2

Launch pad: 90

Location: Baikonur Cosmodrome, Republic of Kazakhstan

...

Latest news about this satellite

There are no fresh news available about this satellite. Check back as we update our databases every day.


Newsletter sign-up

Weekly statistics, charts and insights to help you stay on top of the space industry.